[[{"header":{"parameterUnit":"m.s-1","parameterCategory":1,"la1":30.2992,"la2":30.254,"lo1":-89.0895,"lo2":-89.0443,"dy":0.0025,"dx":0.0025,"nx":19,"ny":19,"refTime":"2026-04-17T21:00:00:Z","depth":0,"parameterNumber":2,"parameterNumberName":"U-component_of_WINDS"},"data":[0,0,0,-1.1747,-1.1746,-1.171,-1.171,-1.1677,-1.1677,0,0,0,0,0,0,0,0,0,0,0,-1.1765,-1.1765,-1.1747,-1.1746,-1.171,-1.171,-1.1677,-1.1677,0,0,0,0,0,0,0,0,0,0,0,-1.1765,-1.1765,-1.1765,-1.1746,-1.171,-1.171,-1.1677,-1.17,0,0,0,0,0,0,0,0,0,0,-1.1733,-1.1756,-1.1765,-1.1765,-1.1746,-1.1711,-1.171,-1.1701,-1.1698,-1.1699,0,-1.1701,0,-1.1689,-1.1675,-1.1675,0,0,0,-1.1741,-1.1758,-1.1742,-1.1765,-1.1746,-1.1711,-1.1725,-1.1699,-1.1697,-1.1696,-1.17,-1.1699,-1.1688,-1.1675,-1.1675,-1.1698,-1.1698,0,0,-1.1743,-1.1762,-1.1744,-1.1741,-1.1747,-1.1726,-1.1724,-1.1697,-1.1704,-1.17,-1.1698,-1.1687,-1.1675,-1.1675,-1.1697,-1.1698,0,0,0,-1.1752,-1.1764,-1.1748,-1.1742,-1.1735,-1.1725,-1.1723,-1.1705,-1.1698,-1.1697,-1.1687,-1.1675,-1.1675,-1.1697,-1.1697,-1.1735,0,0,0,-1.1753,-1.177,-1.1749,-1.1761,-1.1736,-1.1719,-1.1731,-1.17,-1.1696,-1.1687,-1.1675,-1.1675,-1.1696,-1.1697,-1.1733,-1.175,0,0,0,-1.1765,-1.1771,-1.1768,-1.1762,-1.1747,-1.1719,-1.1711,-1.1699,-1.169,-1.1675,-1.1675,-1.1696,-1.1697,-1.1732,-1.1747,-1.1763,0,0,0,-1.1783,-1.1801,-1.1769,-1.1786,-1.1748,-1.1743,-1.1711,-1.1706,-1.1698,-1.1675,-1.1696,-1.1697,-1.1731,-1.1745,-1.1761,-1.178,-1.1789,0,0,-1.1817,-1.1806,-1.1815,-1.1785,-1.1791,-1.1747,-1.1759,-1.1732,-1.1712,-1.1704,-1.1704,-1.1734,-1.1747,-1.1762,-1.1835,-1.1843,0,0,0,-1.1832,-1.1839,-1.1836,-1.1829,-1.181,-1.1796,-1.1765,-1.1756,-1.1748,-1.1712,-1.1743,-1.175,-1.1758,-1.1766,-1.1773,-1.1779,-1.1702,-1.1702,-1.1702,-1.1908,-1.1883,-1.1896,-1.1867,-1.1862,-1.1832,-1.1825,-1.1807,-1.1782,-1.179,-1.1788,-1.1835,-1.1845,-1.185,-1.1857,-1.1795,-1.1795,-1.1795,-1.1795,-1.1957,-1.1962,-1.1931,-1.1932,-1.1906,-1.1907,-1.1879,-1.1862,-1.186,-1.1834,-1.184,-1.1815,-1.1859,-1.1864,-1.1798,-1.1798,-1.1797,-1.1797,-1.1797,-1.2004,-1.2003,-1.1991,-1.1981,-1.1976,-1.1946,-1.1946,-1.1922,-1.1899,-1.1905,-1.1901,-1.19,-1.1897,-1.1905,-1.1905,-1.1905,-1.1905,-1.1905,-1.1905,-1.2058,-1.2044,-1.2047,-1.203,-1.2024,-1.2013,-1.1984,-1.1978,-1.1964,-1.1947,-1.1947,-1.1922,-1.1868,-1.1855,-1.1908,-1.1907,-1.1907,-1.1907,-1.1907,-1.2117,-1.21,-1.2104,-1.2098,-1.2077,-1.2075,-1.2045,-1.2034,-1.2025,-1.2027,-1.2002,-1.1965,-1.1952,-1.1946,-1.1936,-1.2006,-1.2006,-1.2006,-1.2006,-1.2157,-1.2148,-1.2148,-1.2141,-1.2131,-1.2105,-1.2112,-1.2091,-1.2067,-1.206,-1.2047,-1.203,-1.2026,-1.2015,-1.2008,-1.1998,-1.2083,-1.2083,-1.2083,-1.2192,-1.2182,-1.2192,-1.2169,-1.2151,-1.2137,-1.2144,-1.2138,-1.2106,-1.2086,-1.2055,-1.2052,-1.2025,-1.2018,-1.1996,-1.1985,-1.1966,0,0]},{"header":{"parameterUnit":"m.s-1","parameterCategory":1,"la1":30.2992,"la2":30.254,"lo1":-89.0895,"lo2":-89.0443,"dy":0.0025,"dx":0.0025,"nx":19,"ny":19,"refTime":"2026-04-17T21:00:00:Z","depth":0,"parameterNumber":3,"parameterNumberName":"V-component_of_WINDS"},"data":[0,0,0,2.7912,2.7911,2.7898,2.7898,2.7886,2.7886,0,0,0,0,0,0,0,0,0,0,0,2.7919,2.7919,2.7912,2.7911,2.7898,2.7898,2.7886,2.7886,0,0,0,0,0,0,0,0,0,0,0,2.7919,2.7919,2.7919,2.7911,2.7898,2.7898,2.7886,2.7894,0,0,0,0,0,0,0,0,0,0,2.7906,2.7916,2.7919,2.7919,2.7911,2.7898,2.7898,2.7894,2.7893,2.7894,0,2.7895,0,2.789,2.7885,2.7885,0,0,0,2.7909,2.7917,2.791,2.7919,2.7911,2.7898,2.7903,2.7894,2.7893,2.7893,2.7895,2.7895,2.789,2.7885,2.7885,2.7898,2.7898,0,0,2.791,2.7918,2.7911,2.791,2.7912,2.7904,2.7903,2.7893,2.7896,2.7895,2.7894,2.789,2.7885,2.7885,2.7898,2.7898,0,0,0,2.7913,2.7919,2.7912,2.791,2.7908,2.7903,2.7902,2.7896,2.7894,2.7894,2.789,2.7885,2.7885,2.7898,2.7898,2.7915,0,0,0,2.7914,2.7921,2.7913,2.7918,2.7908,2.7902,2.7906,2.7894,2.7893,2.789,2.7885,2.7885,2.7897,2.7898,2.7914,2.7921,0,0,0,2.7919,2.7921,2.792,2.7918,2.7913,2.7902,2.7898,2.7894,2.7891,2.7885,2.7885,2.7897,2.7898,2.7913,2.792,2.7928,0,0,0,2.7926,2.7935,2.7921,2.793,2.7913,2.7913,2.7898,2.7898,2.7895,2.7885,2.7897,2.7898,2.7913,2.7919,2.7927,2.7935,2.794,0,0,2.7942,2.7937,2.7942,2.7929,2.7934,2.7914,2.7921,2.7911,2.7902,2.79,2.79,2.7914,2.792,2.7927,2.7962,2.7965,0,0,0,2.795,2.7954,2.7953,2.7951,2.7944,2.7939,2.7926,2.7922,2.792,2.7903,2.7919,2.7922,2.7926,2.793,2.7933,2.7936,2.79,2.79,2.79,2.7985,2.7974,2.7982,2.797,2.7969,2.7956,2.7954,2.7947,2.7936,2.7941,2.7939,2.7962,2.7966,2.7968,2.7972,2.7943,2.7943,2.7943,2.7944,2.8008,2.8011,2.7998,2.8,2.7989,2.7991,2.798,2.7973,2.7973,2.7961,2.7964,2.7952,2.7973,2.7975,2.7945,2.7945,2.7944,2.7944,2.7944,2.8029,2.8029,2.8025,2.8022,2.8021,2.8009,2.801,2.8,2.7991,2.7994,2.7992,2.7992,2.799,2.7994,2.7994,2.7994,2.7994,2.7994,2.7994,2.8052,2.8047,2.8049,2.8044,2.8042,2.8038,2.8027,2.8025,2.802,2.8013,2.8013,2.8002,2.7977,2.7971,2.7995,2.7995,2.7995,2.7995,2.7995,2.8078,2.8071,2.8075,2.8073,2.8066,2.8066,2.8054,2.8051,2.8048,2.8049,2.8038,2.8021,2.8015,2.8013,2.8008,2.804,2.804,2.804,2.804,2.8096,2.8093,2.8094,2.8093,2.809,2.808,2.8084,2.8077,2.8067,2.8065,2.8059,2.8051,2.8049,2.8044,2.8041,2.8036,2.8075,2.8075,2.8075,2.8112,2.8108,2.8113,2.8105,2.8099,2.8094,2.8099,2.8097,2.8085,2.8077,2.8063,2.8061,2.8049,2.8045,2.8035,2.8031,2.8021,0,0]}]]